DW9436 Weather Reports


time (UTC)temp
F
wind
direction
speed
knots
gust
knots
rain 1hr
in
rain 24hr
in
rain mn
in
humidity
%
barometer
mb
20210920051559 46 0 0.0 1.7 0.00 0.01 0.01 50 1024.1
20210920051024 46 298 0.0 0.9 0.00 0.01 0.01 50 1024.0
20210920050524 46 0 0.0 0.9 0.00 0.01 0.01 51 1023.9
20210920050031 46 0 0.0 0.9 0.00 0.01 0.01 51 1023.9
20210920045530 46 0 0.0 0.9 0.00 0.01 0.01 51 1023.9
20210920045024 46 0 0.0 0.9 0.00 0.01 0.01 51 1023.8
20210920044606 46 0 0.0 0.9 0.00 0.01 0.01 51 1023.9
20210920044033 47 0 0.0 1.7 0.00 0.01 0.01 50 1023.8
20210920043523 47 0 0.0 1.7 0.00 0.01 0.01 50 1023.8
20210920043045 47 298 0.0 1.7 0.00 0.01 0.01 50 1023.7
20210920042523 48 0 0.0 1.7 0.00 0.01 0.01 48 1023.8
20210920042032 48 0 0.0 1.7 0.00 0.01 0.01 48 1023.7
20210920041542 48 0 0.0 1.7 0.00 0.01 0.01 48 1023.7
20210920041026 48 298 0.0 1.7 0.00 0.01 0.01 48 1023.5
20210920040526 49 0 0.0 0.9 0.00 0.01 0.01 47 1023.6
20210920040033 49 0 0.0 2.6 0.00 0.01 0.01 47 1023.4
20210920035539 49 298 0.0 2.6 0.00 0.01 0.01 47 1023.2
20210920035023 49 0 0.0 1.7 0.00 0.01 0.01 47 1023.2
20210920034615 49 0 0.0 1.7 0.00 0.01 0.01 47 1023.1
20210920034037 49 168 0.0 0.9 0.00 0.01 0.01 47 1023.1
20210920033524 50 0 0.0 0.9 0.00 0.01 0.01 46 1022.9
20210920033048 50 0 0.0 1.7 0.00 0.01 0.01 46 1022.9
20210920032523 50 168 0.0 1.7 0.00 0.01 0.01 46 1022.9
20210920032024 50 0 0.0 0.9 0.00 0.01 0.01 45 1022.7
20210920031557 51 0 0.0 0.9 0.00 0.01 0.01 45 1022.7
20210920031024 51 0 0.0 0.9 0.00 0.01 0.01 45 1022.7
20210920030525 51 0 0.0 1.7 0.00 0.01 0.01 45 1022.6
20210920030058 51 0 0.0 1.7 0.00 0.01 0.01 45 1022.5
20210920025524 51 0 0.0 0.9 0.00 0.01 0.01 45 1022.5
20210920025027 52 0 0.0 0.0 0.00 0.01 0.01 45 1022.5
20210920024557 52 0 0.0 0.9 0.00 0.01 0.01 45 1022.3
20210920024024 52 0 0.0 0.9 0.00 0.01 0.01 44 1022.2
20210920023524 53 0 0.0 0.9 0.00 0.01 0.01 43 1022.1
20210920023026 53 0 0.0 0.0 0.00 0.01 0.01 43 1022.2
20210920022529 54 0 0.0 0.0 0.00 0.01 0.01 42 1022.0
20210920022032 54 0 0.0 0.0 0.00 0.01 0.01 42 1021.9
20210920021608 55 0 0.0 0.0 0.00 0.01 0.01 42 1021.9
20210920021023 55 0 0.0 0.9 0.00 0.01 0.01 41 1022.0
20210920020525 55 0 0.0 0.9 0.00 0.01 0.01 41 1021.9
20210920020049 56 0 0.0 0.9 0.00 0.01 0.01 40 1021.8
20210920015523 56 0 0.0 0.9 0.00 0.01 0.01 40 1021.8
20210920015041 57 0 0.0 0.9 0.00 0.01 0.01 39 1021.8
20210920014530 57 0 0.0 2.6 0.00 0.01 0.01 39 1021.7
20210920014023 57 0 0.0 2.6 0.00 0.01 0.01 38 1021.7
20210920014007 58 167 0.0 1.7 0.00 0.01 0.01 39 1020.9
20210920013533 57 167 0.0 3.5 0.00 0.01 0.01 38 1021.8
20210920013038 57 0 0.0 3.5 0.00 0.01 0.01 38 1021.8
20210920012525 58 274 0.0 2.6 0.00 0.01 0.01 37 1021.9
20210920012024 58 0 0.0 2.6 0.00 0.01 0.01 37 1021.9
20210920011537 58 279 0.0 1.7 0.00 0.01 0.01 36 1021.9
20210920011023 58 279 0.0 1.7 0.00 0.01 0.01 36 1021.8
20210920010530 58 0 0.0 2.6 0.00 0.01 0.01 36 1021.7
20210920010105 58 0 0.0 3.5 0.00 0.01 0.01 36 1021.6
20210920005524 58 246 0.9 4.3 0.00 0.01 0.01 36 1021.6
20210920005033 58 178 1.7 4.3 0.00 0.01 0.01 35 1021.5
20210920004546 58 165 0.9 4.3 0.00 0.01 0.01 36 1021.4
20210920004023 58 157 1.7 4.3 0.00 0.01 0.01 35 1021.5
20210920003526 58 172 0.0 4.3 0.00 0.01 0.01 35 1021.4
20210920003044 58 318 0.9 4.3 0.00 0.01 0.01 36 1021.5
20210920002531 58 148 2.6 6.1 0.00 0.01 0.01 34 1021.5
20210920002023 59 167 0.9 6.1 0.00 0.01 0.01 34 1021.5
20210920001548 59 128 2.6 6.1 0.00 0.01 0.01 34 1021.6
20210920001024 59 0 0.9 5.2 0.00 0.01 0.01 34 1021.6
20210920000528 59 140 2.6 6.1 0.00 0.01 0.01 34 1021.6
20210920000032 59 158 3.5 6.1 0.00 0.01 0.01 33 1021.4
20210919235525 59 177 0.0 6.1 0.00 0.01 0.01 33 1021.5
20210919235034 59 185 0.9 6.1 0.00 0.01 0.01 33 1021.5
20210919234537 60 196 1.7 4.3 0.00 0.01 0.01 32 1021.5
20210919234528 60 196 1.7 4.3 0.00 0.01 0.01 32 1020.6
20210919234028 60 346 0.9 4.3 0.00 0.01 0.01 32 1021.6
20210919233523 60 197 0.9 5.2 0.00 0.01 0.01 33 1021.5
20210919233052 61 167 2.6 5.2 0.00 0.01 0.01 31 1021.6
20210919232523 61 324 0.9 5.2 0.00 0.01 0.01 31 1021.4
20210919232024 60 184 1.7 5.2 0.00 0.01 0.01 31 1021.3
20210919231610 61 283 0.9 2.6 0.00 0.01 0.01 33 1021.3
20210919231023 61 299 0.9 4.3 0.00 0.01 0.01 33 1021.4
20210919230539 60 306 1.7 4.3 0.00 0.01 0.01 34 1021.4
20210919230027 61 287 0.9 4.3 0.00 0.01 0.01 33 1021.4
20210919225556 59 332 1.7 4.3 0.00 0.01 0.01 33 1021.2
20210919225036 60 278 1.7 7.8 0.00 0.01 0.01 33 1021.3
20210919224648 60 202 2.6 7.8 0.00 0.01 0.01 33 1021.3
20210919224031 60 250 0.9 5.2 0.00 0.01 0.01 34 1021.4
20210919223531 60 213 0.9 4.3 0.00 0.01 0.01 35 1021.5
20210919223103 59 5 1.7 4.3 0.00 0.01 0.01 33 1021.5
20210919222526 60 325 0.9 4.3 0.00 0.01 0.01 32 1021.6
20210919222023 60 245 1.7 6.1 0.00 0.01 0.01 37 1021.3
20210919221635 59 255 1.7 8.7 0.00 0.01 0.01 37 1021.4
20210919221024 59 144 3.5 9.6 0.00 0.01 0.01 38 1021.4
20210919220538 59 179 3.5 9.6 0.00 0.01 0.01 38 1021.4
20210919220208 59 173 3.5 7.8 0.00 0.01 0.01 38 1021.5
20210919215535 59 329 1.7 6.1 0.00 0.01 0.01 38 1021.5
20210919215022 59 165 1.7 9.6 0.00 0.01 0.01 38 1021.5
20210919214621 58 159 4.3 9.6 0.00 0.01 0.01 38 1021.6
20210919214031 59 130 0.9 6.1 0.00 0.01 0.01 38 1021.7
20210919213524 59 211 2.6 7.0 0.00 0.01 0.01 38 1021.7
20210919213039 59 159 2.6 7.0 0.00 0.01 0.01 42 1021.7
20210919212535 59 198 2.6 7.0 0.00 0.01 0.01 40 1021.6
20210919212033 58 180 1.7 7.0 0.00 0.01 0.01 40 1021.5
20210919211553 57 159 2.6 7.0 0.00 0.01 0.01 38 1021.5
20210919211031 58 327 2.6 7.8 0.00 0.01 0.01 39 1021.7
20210919210535 58 182 3.5 7.8 0.00 0.01 0.01 41 1021.3
20210919210039 57 192 1.7 7.0 0.00 0.01 0.01 44 1021.6
20210919205530 56 303 1.7 8.7 0.00 0.01 0.01 42 1021.7
20210919205023 56 178 2.6 8.7 0.00 0.01 0.01 43 1021.8
20210919204546 56 153 3.5 9.6 0.00 0.01 0.01 43 1021.9
20210919204023 56 166 3.5 9.6 0.00 0.01 0.01 43 1021.8
20210919203523 56 148 1.7 6.1 0.00 0.01 0.01 43 1022.0
20210919203028 56 264 1.7 6.1 0.00 0.01 0.01 46 1021.9
20210919202525 57 163 0.9 6.1 0.00 0.01 0.01 44 1021.8
20210919202029 55 278 2.6 6.1 0.00 0.01 0.01 47 1021.8
20210919201531 56 201 1.7 7.8 0.00 0.01 0.01 47 1021.9
20210919201023 55 347 0.9 9.6 0.00 0.01 0.01 47 1021.7
20210919200524 55 136 0.9 9.6 0.00 0.01 0.01 48 1021.7
20210919200039 55 328 0.9 9.6 0.00 0.01 0.01 48 1021.7
20210919195534 54 144 2.6 9.6 0.00 0.01 0.01 51 1021.7
20210919195023 53 216 4.3 7.8 0.00 0.01 0.01 50 1021.7
20210919194556 54 152 1.7 5.2 0.00 0.01 0.01 51 1021.6
20210919194024 54 168 1.7 7.0 0.00 0.01 0.01 51 1021.7
20210919193554 54 155 0.9 7.0 0.00 0.01 0.01 53 1021.6
20210919193026 53 316 1.7 5.2 0.00 0.01 0.01 51 1021.5
20210919192534 54 332 1.7 6.1 0.00 0.01 0.01 52 1021.7
20210919192024 52 157 1.7 8.7 0.00 0.01 0.01 54 1021.6
20210919191659 53 142 4.3 8.7 0.00 0.01 0.01 53 1020.5
20210919191558 52 156 4.3 9.6 0.00 0.01 0.01 51 1021.7
20210919191106 52 182 3.5 9.6 0.00 0.01 0.01 51 1021.5
20210919190533 53 113 1.7 12.2 0.00 0.01 0.01 52 1021.6
20210919190046 52 146 2.6 12.2 0.00 0.01 0.01 50 1021.6
20210919185523 53 156 2.6 7.8 0.00 0.01 0.01 48 1021.6
20210919185022 53 185 2.6 10.4 0.00 0.01 0.01 51 1021.7
20210919184554 53 350 2.6 10.4 0.00 0.01 0.01 51 1021.5
20210919184023 53 165 1.7 10.4 0.00 0.01 0.01 54 1021.5
20210919183523 53 197 1.7 7.0 0.00 0.01 0.01 52 1021.4
20210919183103 53 221 1.7 7.0 0.00 0.01 0.01 54 1021.4
20210919182524 53 159 1.7 7.0 0.00 0.01 0.01 53 1021.4
20210919182024 52 318 0.9 9.6 0.00 0.01 0.01 57 1021.4
20210919181536 51 314 1.7 9.6 0.00 0.01 0.01 57 1021.5
20210919181034 51 157 1.7 7.0 0.00 0.01 0.01 58 1021.6
20210919180524 51 229 1.7 7.8 0.00 0.01 0.01 59 1021.6
20210919180057 51 167 0.9 7.8 0.00 0.01 0.01 61 1021.5
20210919175525 49 143 4.3 8.7 0.00 0.01 0.01 60 1021.6
20210919175023 49 70 4.3 8.7 0.00 0.01 0.01 63 1021.5
20210919174531 50 143 4.3 8.7 0.00 0.01 0.01 62 1021.6
20210919174036 50 154 1.7 7.8 0.00 0.01 0.01 64 1021.6
20210919173538 50 117 2.6 10.4 0.00 0.01 0.01 63 1021.4
20210919173045 49 194 3.5 10.4 0.00 0.01 0.01 63 1021.4
20210919172524 50 171 1.7 7.8 0.00 0.01 0.01 64 1021.1
20210919172023 49 142 2.6 7.8 0.00 0.01 0.01 65 1021.2
20210919171608 50 177 1.7 8.7 0.00 0.01 0.01 64 1021.0
20210919171024 49 321 1.7 8.7 0.00 0.01 0.01 65 1021.0
20210919170524 49 185 1.7 12.2 0.00 0.01 0.01 66 1021.0
20210919170132 49 273 4.3 12.2 0.00 0.01 0.01 66 1020.8
20210919165532 49 213 1.7 10.4 0.00 0.01 0.01 66 1021.0
20210919165023 48 342 2.6 10.4 0.00 0.01 0.01 66 1020.8
20210919164538 48 167 3.5 9.6 0.00 0.01 0.01 66 1020.7
20210919164023 48 171 2.6 9.6 0.00 0.01 0.01 67 1020.7
20210919163524 48 203 2.6 8.7 0.00 0.01 0.01 68 1020.6
20210919163033 48 184 2.6 8.7 0.00 0.01 0.01 69 1020.6
20210919162531 47 200 1.7 9.6 0.00 0.01 0.01 67 1020.5
20210919162022 47 82 4.3 9.6 0.00 0.01 0.01 68 1020.2
20210919161552 47 329 2.6 9.6 0.00 0.01 0.01 70 1020.4
20210919161024 47 155 2.6 7.8 0.00 0.01 0.01 72 1020.3
20210919160531 47 164 3.5 7.8 0.00 0.01 0.01 72 1020.2
20210919160122 47 285 1.7 6.1 0.00 0.01 0.01 73 1020.1
20210919155523 47 128 1.7 6.1 0.00 0.01 0.01 74 1020.1
20210919155028 46 188 2.6 6.1 0.00 0.01 0.01 73 1020.0
20210919154556 46 171 2.6 6.1 0.00 0.01 0.01 73 1019.9
20210919154023 46 169 2.6 5.2 0.00 0.01 0.01 74 1019.9
20210919153547 46 178 0.9 7.0 0.00 0.01 0.01 75 1020.0
20210919153519 47 178 1.7 6.1 0.00 0.01 0.01 75 1018.9
20210919153050 46 169 1.7 6.1 0.00 0.01 0.01 76 1019.1
20210919153043 46 167 1.7 7.0 0.00 0.01 0.01 76 1020.1
20210919152545 46 291 0.9 6.1 0.00 0.01 0.01 77 1020.0
20210919152520 46 291 0.9 6.1 0.00 0.01 0.01 77 1019.0
20210919152023 46 327 0.9 8.7 0.00 0.01 0.01 77 1019.8
20210919152017 46 327 0.9 7.8 0.00 0.01 0.01 77 1018.7
20210919151557 46 126 2.6 8.7 0.00 0.01 0.01 78 1019.8
20210919151548 46 159 2.6 7.8 0.00 0.01 0.01 78 1018.8
20210919151035 46 175 1.7 6.1 0.00 0.01 0.01 78 1018.7
20210919150522 46 191 0.9 9.6 0.00 0.01 0.01 78 1019.7
20210919150420 46 182 1.7 9.6 0.00 0.01 0.01 79 1019.7
20210919123534 47 168 5.2 13.9 0.00 0.01 0.01 85 1016.2
20210919123522 47 94 4.3 13.9 0.00 0.01 0.01 85 1017.1
20210919123037 48 163 3.5 16.5 0.01 0.01 0.01 85 1015.8
20210919123029 47 163 3.5 16.5 0.00 0.01 0.01 85 1016.6
20210919122528 48 178 5.2 16.5 0.01 0.01 0.01 85 1015.8
20210919122523 47 178 5.2 16.5 0.01 0.01 0.01 84 1016.7
20210919122032 48 162 2.6 8.7 0.01 0.01 0.01 85 1015.8
20210919122023 47 193 2.6 9.6 0.01 0.01 0.01 85 1016.7
20210919121637 48 182 3.5 10.4 0.01 0.01 0.01 86 1015.7
20210919121602 47 162 3.5 10.4 0.01 0.01 0.01 86 1016.6
20210919121034 47 138 4.3 12.2 0.01 0.01 0.01 87 1015.5
20210919120549 47 45 4.3 12.2 0.01 0.01 0.01 88 1016.3
20210919120526 47 163 4.3 12.2 0.01 0.01 0.01 88 1015.4
20210919120103 47 184 4.3 13.0 0.01 0.01 0.01 88 1016.3
20210919120041 47 99 3.5 13.0 0.01 0.01 0.01 89 1015.4
20210919115530 47 190 6.1 15.6 0.01 0.01 0.01 89 1015.5
20210919115524 47 120 6.1 14.8 0.01 0.01 0.01 88 1016.3
20210919115035 47 209 1.7 14.8 0.01 0.01 0.01 89 1016.4
20210919115029 47 169 2.6 15.6 0.01 0.01 0.01 90 1015.5
20210919114554 47 221 4.3 17.4 0.01 0.01 0.01 90 1016.4
20210919114547 47 221 5.2 17.4 0.01 0.01 0.01 90 1015.6
20210919114025 47 113 2.6 17.4 0.01 0.01 0.01 91 1015.7
20210919113525 47 223 4.3 13.9 0.01 0.01 0.01 91 1016.6
20210919113055 47 211 4.3 12.2 0.01 0.01 0.01 91 1016.2
20210919113025 47 156 5.2 13.0 0.00 0.00 0.00 92 1015.5
20210919112535 47 195 5.2 12.2 0.00 0.00 0.00 91 1016.3
20210919112038 47 217 4.3 12.2 0.00 0.00 0.00 91 1016.3
20210919111541 47 201 3.5 11.3 0.00 0.00 0.00 91 1016.1
20210919111024 46 210 4.3 13.0 0.00 0.00 0.00 90 1016.0
20210919110529 47 157 6.1 17.4 0.00 0.00 0.00 90 1016.0
20210919110047 46 136 4.3 17.4 0.00 0.00 0.00 90 1016.4
20210919105525 46 205 4.3 14.8 0.00 0.00 0.00 91 1016.2
20210919105024 46 164 4.3 12.2 0.00 0.00 0.00 91 1016.2
20210919104552 46 153 5.2 11.3 0.00 0.00 0.00 91 1016.3
20210919104023 46 136 3.5 13.0 0.00 0.00 0.00 91 1016.2
20210919103605 46 160 5.2 13.0 0.00 0.00 0.00 90 1016.4
20210919103052 46 138 5.2 13.0 0.00 0.00 0.00 90 1016.6
20210919102528 46 194 5.2 14.8 0.00 0.00 0.00 89 1016.5
20210919102028 46 91 4.3 15.6 0.00 0.00 0.00 88 1016.7
20210919101619 46 208 6.1 15.6 0.00 0.00 0.00 87 1016.9
20210919101032 47 134 6.1 15.6 0.00 0.00 0.00 87 1017.0
20210919100524 47 153 6.1 15.6 0.00 0.00 0.00 87 1017.1
20210919100037 47 178 3.5 18.2 0.00 0.00 0.00 86 1016.8
20210919095523 47 173 5.2 18.2 0.00 0.00 0.00 87 1016.6
20210919095024 47 23 4.3 17.4 0.00 0.00 0.00 87 1017.0
20210919094606 47 192 5.2 17.4 0.00 0.00 0.00 87 1016.8
20210919094040 46 177 4.3 16.5 0.00 0.00 0.00 86 1016.7
20210919093526 46 217 5.2 18.2 0.00 0.00 0.00 86 1016.9
20210919093040 46 164 4.3 18.2 0.00 0.00 0.00 86 1017.1
20210919092538 46 67 7.0 13.9 0.00 0.00 0.00 85 1017.5
20210919092026 46 168 4.3 13.0 0.00 0.00 0.00 85 1017.3
20210919091538 47 197 3.5 16.5 0.00 0.00 0.00 85 1017.3
20210919091022 47 106 4.3 16.5 0.00 0.00 0.00 83 1017.5
20210919090526 47 112 5.2 12.2 0.00 0.00 0.00 83 1017.4
20210919090035 47 161 3.5 10.4 0.00 0.00 0.00 82 1017.5
20210919085536 47 42 4.3 10.4 0.00 0.00 0.00 82 1017.5
20210919085025 47 316 3.5 14.8 0.00 0.00 0.00 82 1017.3
20210919084547 47 136 5.2 14.8 0.00 0.00 0.00 82 1017.3
20210919084032 47 352 4.3 16.5 0.00 0.00 0.00 82 1017.3
20210919083521 47 172 6.1 16.5 0.00 0.00 0.00 82 1017.6
20210919083044 47 176 3.5 16.5 0.00 0.00 0.00 83 1017.7
20210919082552 47 124 5.2 13.9 0.00 0.00 0.00 83 1017.7
20210919082024 47 174 5.2 13.9 0.00 0.00 0.00 81 1017.8
20210919081547 48 123 4.3 11.3 0.00 0.00 0.00 80 1017.9
20210919081022 48 135 3.5 12.2 0.00 0.00 0.00 79 1017.8
20210919080523 48 146 5.2 12.2 0.00 0.00 0.00 78 1017.9
20210919080052 48 165 4.3 10.4 0.00 0.00 0.00 78 1017.9
20210919075529 48 238 3.5 19.1 0.00 0.00 0.00 78 1018.1
20210919075022 48 146 6.1 19.1 0.00 0.00 0.00 78 1018.1
20210919074612 48 146 5.2 15.6 0.00 0.00 0.00 79 1018.3
20210919074025 48 221 5.2 13.0 0.00 0.00 0.00 79 1018.5
20210919073523 48 189 5.2 12.2 0.00 0.00 0.00 78 1018.4
20210919073055 48 234 5.2 10.4 0.00 0.00 0.00 77 1018.5
20210919072539 48 155 4.3 10.4 0.00 0.00 0.00 76 1018.4
20210919072034 48 179 5.2 12.2 0.00 0.00 0.00 75 1018.6
20210919071610 48 190 5.2 12.2 0.00 0.00 0.00 75 1018.6
20210919071029 49 198 3.5 14.8 0.00 0.00 0.00 74 1018.7
20210919070536 49 208 4.3 14.8 0.00 0.00 0.00 73 1018.9
20210919070027 49 188 4.3 11.3 0.00 0.00 0.00 72 1018.9
20210919065529 49 189 4.3 13.0 0.00 0.00 0.00 72 1018.9
20210919065023 49 153 6.1 17.4 0.00 0.00 0.00 72 1019.0
20210919064547 49 204 5.2 17.4 0.00 0.00 0.00 71 1019.1
20210919064030 49 180 4.3 17.4 0.00 0.00 0.00 71 1019.2
20210919063526 49 144 7.0 17.4 0.00 0.00 0.00 70 1019.4
20210919063118 49 186 4.3 16.5 0.00 0.00 0.00 69 1019.4
20210919062521 49 352 5.2 16.5 0.00 0.00 0.00 69 1019.2
20210919062029 49 196 5.2 15.6 0.00 0.00 0.00 68 1019.3
20210919061542 49 171 3.5 18.2 0.00 0.00 0.00 66 1019.4
20210919061022 49 119 6.1 18.2 0.00 0.00 0.00 66 1019.4
20210919060524 49 138 5.2 13.9 0.00 0.00 0.00 64 1019.7
20210919060030 49 182 4.3 11.3 0.00 0.00 0.00 61 1019.5
20210919055521 49 151 4.3 11.3 0.00 0.00 0.00 60 1019.5
20210919055023 49 163 4.3 8.7 0.00 0.00 0.00 57 1019.6
20210919054602 49 115 3.5 13.9 0.00 0.00 0.00 54 1019.6
20210919054046 49 180 3.5 13.9 0.00 0.00 0.00 53 1019.7
20210919053524 50 147 4.3 12.2 0.00 0.00 0.00 53 1019.7
20210919053025 50 248 4.3 12.2 0.00 0.00 0.00 50 1019.5
20210919052536 50 145 3.5 11.3 0.00 0.00 0.00 46 1019.5
20210919052034 50 188 4.3 12.2 0.00 0.00 0.00 45 1019.9